Regional Weather Roundup
Issued by NWS Cleveland, OH

Home | Current Version | Previous Version | Graphics & Text | Print | Product List | Glossary On
Versions: 1 2 3 4 5 6 7 8 9 10 11 12 13 14 15 16 17 18 19 20 21 22 23 24 25 26 27 28 29 30 31 32 33 34 35 36 37 38 39 40 41 42 43 44 45 46 47 48 49 50
000
ASUS41 KCLE 240002
RWRCLE
OHIO REGIONAL WEATHER ROUNDUP
NATIONAL WEATHER SERVICE CLEVELAND, OH
800 PM EDT TUE AUG 23 2016

NOTE: "FAIR" INDICATES FEW OR NO CLOUDS BELOW 12,000 FEET WITH NO
SIGNIFICANT WEATHER AND/OR OBSTRUCTIONS TO VISIBILITY.

OHZ001>008-015>018-024>027-034-035-043-044-240100-
   NORTHWEST OHIO

CITY           SKY/WX    TMP DP  RH WIND       PRES   REMARKS
DEFIANCE       CLEAR     75  59  57 S5        30.21S
FINDLAY        CLEAR     74  61  63 S6        30.22R
TOLEDO EXPRESS CLEAR     73  63  70 S3        30.21R
TOLEDO EXEC    CLEAR     76  62  62 S5        30.22S
LIMA           CLEAR     74  63  68 S3        30.24R
$$

OHZ009>014-019>023-028>033-038-089-240100-
   NORTHEAST OHIO

CITY           SKY/WX    TMP DP  RH WIND       PRES   REMARKS
CLE-HOPKINS    PTCLDY    77  58  51 N6        30.25S
CLE-LAKEFRONT  CLEAR     75  59  57 NE3       30.22S
CUY CO. ARPT   MOCLDY    75  61  60 NE7       30.25S
LORAIN-ELYRIA  CLEAR     75  60  59 N3        30.24R
ASHTABULA      PTCLDY    71  62  73 CALM      30.26R
AKRON-CANTON   PTCLDY    74  56  53 SW6       30.25S
WOOSTER        CLEAR     70  58  65 S5        30.26R
MANSFIELD      CLEAR     72  60  66 S6        30.26R
YOUNGSTOWN     MOCLDY    75  58  55 S3        30.25S
$$

OHZ042-051>053-060>062-070>072-077>081-240100-
  SOUTHWEST OHIO

CITY           SKY/WX    TMP DP  RH WIND       PRES   REMARKS
CINC-COVINGTON MOCLDY    76  62  62 SW3       30.23R
CINC-LUNKEN    CLOUDY    73  67  81 SE3       30.22S
HAMILTON       CLOUDY    76  60  57 SE3       30.22F
DAYTON         CLOUDY    74  59  59 SE7       30.24S
WRIGHT-PAT AFB CLEAR     76  58  53 SE7       30.23S
DAYTON GENERAL CLOUDY    74  59  59 E5        30.23S
WILMINGTON     CLOUDY    71  63  75 CALM      30.25S
$$

OHZ036-037-039>041-045>050-054>059-063>069-073>076-082>088-240100-
  CENTRAL AND SOUTHEAST OHIO

CITY           SKY/WX    TMP DP  RH WIND       PRES   REMARKS
COLUMBUS       MOCLDY    76  57  51 SW6       30.24R
OSU AIRPORT    CLEAR     76  58  53 S6        30.24R
BOLTON FIELD   CLEAR     73  64  73 CALM      30.25S
RICKENBACK AFB CLEAR     76  60  56 CALM      30.23S
NEWARK         CLEAR     72  63  73 CALM      30.24R
MARION         CLEAR     74  59  59 SW5       30.25R
LANCASTER      CLEAR     72  63  73 CALM      30.25R
ZANESVILLE     CLEAR     78  57  48 CALM      30.24S
NEW PHILLY     CLEAR     75  61  61 CALM      30.25S
$$




USA.gov is the U.S. government's official web portal to all federal, state and local government web resources and services.